Location: Fontenois
(47.9322°N, 6.1657°E)
Time: 04:56:41
(UTC+00:00)

Daily predictions for brighter satellites

Satellite Brightness Start Highest point End
(mag) Time Altitude Azimuth Time Altitude Azimuth Time Altitude Azimuth
CENTAUR R/B 4.0 03:11:58 32° NNE 03:11:58 32° NNE 03:15:49 10° NE
NOSS 3-2 (C) 4.4 03:51:07 39° NNE 03:51:07 39° NNE 03:55:31 10° NE
Cosmos 2369 Rocket 3.5 03:51:56 31° NNE 03:51:56 31° NNE 03:54:48 10° NNE
Cosmos 1943 Rocket 4.2 03:59:15 18° N 03:59:15 18° N 04:00:45 10° NNE
CZ-2C R/B 3.8 03:52:50 10° SE 03:57:50 39° ENE 04:00:26 24° NNE
COSMO-SKYMED 1 4.2 03:56:11 10° SE 03:59:58 32° ENE 03:59:58 32° ENE
Cosmos 2344 3.9 04:05:25 47° NNW 04:05:25 47° NNW 04:12:50 10° NE
Cosmos 2279 Rocket 4.0 04:06:26 37° N 04:09:01 75° E 04:15:13 10° SSE
Envisat 4.2 04:07:25 10° NNE 04:12:14 41° E 04:16:59 10° SSE
USA 238 DEB 4.2 04:17:53 42° NNW 04:17:53 42° NNW 04:23:43 10° NE
USA 238 4.2 04:17:58 42° NNW 04:17:58 42° NNW 04:23:49 10° NE
SJ 16-02 3.1 04:14:30 10° SSE 04:18:22 31° ESE 04:22:15 10° NE
Gblst 52 Del rocket 4.5 04:18:08 63° NNW 04:18:23 63° N 04:25:05 10° E
USA 215 3.6 04:12:34 10° E 04:18:54 55° NNE 04:20:33 44° NNW
Meteor 1-10 Rocket 4.3 04:17:47 40° N 04:19:47 70° ENE 04:25:19 10° SSE
Cosmos 2227 Rocket 4.4 04:17:13 12° N 04:20:36 19° NE 04:24:33 10° E
Cosmos 1515 Rocket 4.3 04:22:57 47° NE 04:23:28 50° ENE 04:27:40 10° SSE
Lacrosse 4 Rocket 4.1 04:23:22 11° NNE 04:24:42 12° NNE 04:26:30 10° NE
Cosmos 2098 Rocket 4.4 04:28:03 37° N 04:28:03 37° N 04:31:40 10° N
Meteor 2-8 Rocket 4.4 04:25:11 19° N 04:29:51 86° E 04:35:58 10° S
ATLAS 5 CENTAUR R/B 1.8 04:41:25 53° SSE 04:41:55 59° SE 04:46:10 10° NE
COSMOS 2487 3.2 04:47:50 48° ENE 04:47:50 48° ENE 04:50:58 10° SE
SKYMED 2 3.4 04:43:38 10° SSE 04:47:58 87° WSW 04:48:35 66° NNW
Cosmos 1354 Rocket 3.9 04:53:50 41° SW 04:55:30 62° WNW 05:00:48 10° NNE
H-2A R/B 3.9 04:52:01 10° SE 04:55:46 29° ENE 04:59:38 10° N
CZ-4B R/B 4.1 04:54:44 10° NNE 04:59:15 84° ESE 05:03:41 10° SSW
CENTAUR R/B 3.6 04:59:09 28° NW 05:00:30 30° NNW 05:07:07 10° NE
CZ-4C R/B 2.7 05:03:38 10° SSE 05:06:45 80° ENE 05:06:53 76° NE
Cosmos 2180 Rocket 4.5 05:02:07 10° NNW 05:08:00 54° W 05:13:56 10° SSW
FALCON 9 DEB 3.3 05:14:23 45° NNE 05:14:23 45° NNE 05:16:59 10° E
FALCON 9 DEB 3.4 05:16:00 43° NNE 05:16:00 43° NNE 05:18:41 10° E
FALCON 9 DEB 3.6 05:17:28 38° NNE 05:17:28 38° NNE 05:20:11 10° E
Cosmos 1538 Rocket 3.9 05:16:45 20° NNW 05:20:23 76° WSW 05:25:33 10° SSE
MOS 1-B Rocket 4.4 05:15:32 10° SSW 05:20:57 35° W 05:23:07 26° NW
Cosmos 1656 Rocket 4.4 05:20:45 28° NW 05:20:58 28° NW 05:25:41 10° NNE
Alouette 2 Rocket 3.0 05:20:03 23° NNW 05:22:14 86° WSW 05:25:55 10° S
Meteor 1-27 Rocket 3.7 05:16:51 10° NNW 05:22:28 61° W 05:28:08 10° S
ADEOS 3.5 05:21:34 10° NNE 05:26:50 89° ESE 05:32:04 10° SSW
Cosmos 2297 Rocket 2.7 05:23:48 11° NNW 05:29:12 61° ENE 05:34:48 10° SE
Cosmos 1607 3.9 05:26:35 20° NW 05:31:05 78° SW 05:37:13 10° SSE
ATLAS 3B R/B 2.6 05:26:12 10° SW 05:32:46 83° NW 05:39:43 10° NE
FALCON 9 DEB 3.9 05:32:32 30° NNW 05:33:34 38° N 05:36:47 10° E
Cosmos 2369 Rocket 3.4 05:33:45 20° NW 05:33:59 20° NW 05:38:08 10° N
Landsat 5 4.1 05:29:56 10° SSW 05:34:08 40° W 05:36:39 21° NW
Cosmos 1340 Rocket 2.8 05:31:43 10° SSW 05:35:37 55° WNW 05:39:36 10° N
COSMO-SKYMED 1 3.4 05:32:26 10° SSW 05:36:13 29° W 05:37:10 26° WNW
Cosmos 1777 Rocket 4.1 05:31:48 10° SW 05:36:52 50° WNW 05:42:00 10° NNE
CZ-4B R/B 3.1 05:35:08 10° SE 05:38:05 32° ENE 05:41:00 10° N
CZ-2C R/B 3.3 05:33:17 10° SSW 05:38:10 34° W 05:41:55 15° NW
Cosmos 1680 Rocket 4.1 05:34:31 10° NNW 05:39:45 57° ENE 05:44:56 10° SE
Cosmos 158 Rocket 4.1 05:36:53 17° NW 05:40:45 53° WSW 05:45:52 10° S
Cosmos 1943 Rocket 4.1 05:40:47 12° NNW 05:40:47 12° NNW 05:42:45 10° N
Cosmos 1408 Rocket 4.2 05:38:30 10° SW 05:42:18 30° WNW 05:46:08 10° N
CZ-4B R/B 2.6 05:39:40 10° NNE 05:43:16 84° ESE 05:46:54 10° SSW
FALCON 9 DEB 3.1 05:44:13 30° NW 05:45:20 50° NNE 05:48:09 10° E
Cosmos 2263 Rocket 4.3 05:42:01 10° N 05:45:53 19° NE 05:49:45 10° E
Meteor 1-25 Rocket 4.1 05:40:35 10° SSW 05:46:12 83° WNW 05:51:47 10° N
H-2A R/B 4.0 05:42:15 10° NNE 05:46:34 30° E 05:50:54 10° SSE
SMAP 3.9 05:42:24 10° NNE 05:47:00 55° E 05:51:34 10° S
Meteor 1-31 Rocket 3.6 05:46:03 10° N 05:49:26 29° WNW 05:52:50 10° SW
Lacrosse 5 3.4 05:45:00 10° SSW 05:49:40 38° SE 05:54:22 10° ENE
USA 32 4.1 05:45:34 10° NNW 05:50:44 60° W 05:55:53 10° S
Envisat 3.7 05:46:42 10° N 05:51:07 30° WNW 05:55:30 10° SW
Cosmos 1743 Rocket 3.9 05:50:22 10° SW 05:54:28 40° WNW 05:58:36 10° N
Cosmos 923 Rocket 4.0 05:50:01 10° NNW 05:55:24 85° WSW 06:00:45 10° SSE
Cosmos 1174 4.3 05:55:46 22° WNW 05:56:29 24° NW 05:59:15 10° NNE
SJ 16-02 2.1 05:53:03 10° WSW 05:56:55 30° WNW 06:00:50 10° N
CZ-2C R/B 2.9 05:52:12 10° N 05:57:08 69° WNW 06:02:17 10° SSW
Cosmos 1656 4.0 05:54:29 10° SSW 05:59:52 70° ESE 06:05:18 10° NNE
USA 215 3.4 05:55:19 10° SE 06:01:50 68° SW 06:07:53 12° WNW
Lacrosse 4 Rocket 2.3 06:00:02 10° NNW 06:04:24 51° NE 06:08:47 10° SE
SL-4 R/B 2.0 06:00:57 10° SW 06:04:28 67° SSE 06:08:14 10° ENE
NOAA 6 4.3 05:59:56 10° NNE 06:05:04 73° ESE 06:10:11 10° S
Nadezhda 4 Rocket 4.5 05:59:30 10° SW 06:05:11 37° WNW 06:10:58 10° N
EO 1 Delta rocket 4.3 05:59:04 10° N 06:05:15 85° E 06:10:14 10° S
Cosmos 1666 Rocket 3.8 06:01:05 10° S 06:05:33 76° E 06:10:03 10° NNE
Cosmos 2227 Rocket 2.3 05:59:55 10° NNW 06:05:37 80° ENE 06:11:16 10° SSE
Cosmos 1939 Rocket 2.7 06:03:42 10° N 06:07:36 71° WNW 06:11:27 10° SSW
Cosmos 2228 Rocket 3.7 06:06:31 10° NNW 06:10:39 36° W 06:14:49 10° SSW
Okean 1 3.6 06:08:12 10° NNW 06:12:00 45° W 06:15:46 10° SSW
Meteor 2-4 Rocket 3.9 06:07:53 10° NNW 06:13:51 88° E 06:19:39 10° S
FengYun 1-2 T 4.2 06:09:47 10° NNE 06:15:17 77° WNW 06:20:46 10° SSW
Meteor PRIRODA 4.2 06:13:57 10° N 06:17:15 33° WNW 06:20:32 10° SW
Cosmos 1602 4.5 06:15:46 10° SW 06:19:07 29° WNW 06:22:32 10° N
Sich 1 3.3 06:15:38 10° SSW 06:19:42 43° WNW 06:23:48 10° N
Meteor 1-18 Rocket 4.3 06:14:47 10° NNW 06:20:32 62° W 06:26:09 10° S
COSMOS 2487 4.4 06:20:58 11° W 06:21:54 12° W 06:23:07 10° WSW
Cosmos 2112 Rocket 4.0 06:18:10 10° NNW 06:23:31 76° WSW 06:28:45 10° SSE
BREEZE M DEB (TANK) 2.0 06:20:59 11° WNW 06:23:39 54° SSW 06:25:38 10° SE
Cosmos 990 Rocket 4.0 06:18:36 10° SSW 06:23:50 70° WNW 06:29:05 10° NNE
Cosmos 1937 Rocket 4.0 06:19:27 10° S 06:24:39 68° ESE 06:29:55 10° NNE
Cosmos 1092 Rocket 4.4 06:20:10 10° SW 06:26:06 43° WNW 06:32:08 10° N
CZ-4B DEB 4.4 06:20:55 10° NNE 06:26:24 80° ESE 06:31:52 10° SSW
Cosmos 1500 3.7 06:23:01 10° SW 06:26:33 36° WNW 06:30:05 10° N
ATLAS 5 CENTAUR R/B 2.6 06:23:29 10° W 06:26:53 25° NNW 06:30:42 10° NNE
PSLV R/B 3.9 06:26:33 10° S 06:30:37 69° WSW 06:34:44 10° NNW
H-2A R/B 2.9 06:27:45 10° SSW 06:31:39 33° W 06:35:40 10° NNW
Cosmos 1707 Rocket 4.0 06:29:04 10° NNW 06:33:16 42° W 06:37:28 10° SSW
Cosmos 1805 Rocket 4.5 06:30:13 10° SW 06:33:55 26° WNW 06:37:38 10° NNW
Cosmos 1697 Rocket 3.2 06:29:52 10° SSW 06:35:26 67° ESE 06:41:01 10° NNE
Cosmos 44 3.7 06:36:06 10° SSW 06:41:28 82° SE 06:46:40 10° NE
Cosmos 1980 Rocket 3.9 06:36:45 10° S 06:42:01 40° ESE 06:47:19 10° NE
